TimeCST,TemperatureF,Dew PointF,Humidity,Sea Level PressureIn,VisibilityMPH,Wind Direction,Wind SpeedMPH,Gust SpeedMPH,PrecipitationIn,Events,Conditions,WindDirDegrees,DateUTC
12:55 AM,62.2,58.1,86,29.93,10.0,South,9.2,-,N/A,,Scattered Clouds,180,2012-12-02 06:55:00
1:55 AM,61.2,57.9,89,29.94,10.0,South,9.2,-,N/A,,Partly Cloudy,170,2012-12-02 07:55:00
2:55 AM,60.6,58.3,92,29.95,10.0,South,6.9,-,N/A,,Scattered Clouds,180,2012-12-02 08:55:00
3:25 AM,60.8,59.0,94,29.95,10.0,South,5.8,-,N/A,,Mostly Cloudy,170,2012-12-02 09:25:00
3:35 AM,60.8,59.0,94,29.95,10.0,South,6.9,-,N/A,,Mostly Cloudy,170,2012-12-02 09:35:00
3:55 AM,60.3,58.5,94,29.94,10.0,South,6.9,-,N/A,,Mostly Cloudy,170,2012-12-02 09:55:00
4:55 AM,58.8,58.3,98,29.96,10.0,South,6.9,-,N/A,,Clear,180,2012-12-02 10:55:00
5:55 AM,58.6,58.5,99,29.98,10.0,South,4.6,-,N/A,,Scattered Clouds,180,2012-12-02 11:55:00
6:55 AM,57.7,57.7,100,30.00,10.0,South,5.8,-,N/A,,Scattered Clouds,190,2012-12-02 12:55:00
7:10 AM,59.0,59.0,100,30.01,10.0,SSW,4.6,-,N/A,,Mostly Cloudy,200,2012-12-02 13:10:00
7:23 AM,59.0,59.0,100,30.00,10.0,SSW,4.6,-,N/A,,Mostly Cloudy,200,2012-12-02 13:23:00
7:55 AM,59.4,59.4,100,30.02,10.0,South,4.6,-,N/A,,Scattered Clouds,190,2012-12-02 13:55:00
8:31 AM,60.8,60.8,100,30.02,10.0,Variable,4.6,-,N/A,,Mostly Cloudy,0,2012-12-02 14:31:00
8:32 AM,60.8,60.8,100,30.02,10.0,Variable,4.6,-,N/A,,Mostly Cloudy,0,2012-12-02 14:32:00
8:55 AM,62.8,60.6,93,30.03,10.0,SSW,8.1,-,N/A,,Mostly Cloudy,210,2012-12-02 14:55:00
9:55 AM,66.7,61.3,83,30.04,10.0,Variable,5.8,-,N/A,,Clear,0,2012-12-02 15:55:00
10:55 AM,68.9,61.2,76,30.02,10.0,SW,8.1,-,N/A,,Partly Cloudy,220,2012-12-02 16:55:00
11:55 AM,71.6,61.0,69,29.99,10.0,SW,9.2,18.4,N/A,,Mostly Cloudy,220,2012-12-02 17:55:00
12:55 PM,71.8,59.0,64,29.96,10.0,SW,8.1,-,N/A,,Partly Cloudy,230,2012-12-02 18:55:00
1:55 PM,72.0,57.2,60,29.96,10.0,WSW,8.1,-,N/A,,Mostly Cloudy,250,2012-12-02 19:55:00
2:55 PM,72.9,56.3,56,29.96,10.0,WSW,10.4,-,N/A,,Mostly Cloudy,250,2012-12-02 20:55:00
3:55 PM,71.4,56.8,60,29.96,10.0,SW,4.6,-,N/A,,Scattered Clouds,230,2012-12-02 21:55:00
4:55 PM,67.8,57.0,68,29.97,10.0,South,3.5,-,N/A,,Scattered Clouds,170,2012-12-02 22:55:00
5:55 PM,63.0,56.7,80,29.97,10.0,SSE,6.9,-,N/A,,Partly Cloudy,150,2012-12-02 23:55:00
6:55 PM,61.5,58.1,89,29.97,10.0,SE,9.2,-,N/A,,Clear,140,2012-12-03 00:55:00
7:55 PM,63.1,58.6,85,29.97,10.0,SSE,8.1,-,N/A,,Clear,150,2012-12-03 01:55:00
8:55 PM,61.9,57.9,87,29.97,10.0,SSE,6.9,-,N/A,,Clear,160,2012-12-03 02:55:00
9:55 PM,64.4,58.8,82,29.96,10.0,Variable,4.6,-,N/A,,Clear,0,2012-12-03 03:55:00
10:55 PM,63.3,59.4,87,29.96,10.0,South,8.1,-,N/A,,Clear,180,2012-12-03 04:55:00
11:55 PM,62.6,59.9,91,29.96,10.0,South,9.2,-,N/A,,Clear,180,2012-12-03 05:55:00